Time,TemperatureF,DewpointF,PressureIn,WindDirection,WindDirectionDegrees,WindSpeedMPH,WindSpeedGustMPH,Humidity,HourlyPrecipIn,Conditions,Clouds,dailyrainin,SolarRadiationWatts/m^2,SoftwareType,DateUTC
2013-11-07 00:03:00,57.0,55.0,-100.00,South,184,7.0,13.0,93,0.02,,,0.20,0.000000,,2013-11-07 05:03:00,
2013-11-07 00:44:00,57.0,56.0,-100.00,South,187,5.0,15.0,95,0.07,,,-99.99,0.000000,,2013-11-07 05:44:00,
2013-11-07 00:54:00,57.0,56.0,-100.00,South,187,5.0,15.0,95,0.07,,,-99.99,0.000000,,2013-11-07 05:54:00,
2013-11-07 01:03:00,57.0,56.0,-100.00,South,187,5.0,15.0,95,0.07,,,-99.99,0.000000,,2013-11-07 06:03:00,
2013-11-07 01:42:00,56.0,55.0,-100.00,WNW,299,3.0,16.0,97,0.36,,,0.63,0.000000,,2013-11-07 06:42:00,
2013-11-07 01:52:00,56.0,55.0,-100.00,WNW,299,3.0,16.0,97,0.36,,,0.63,0.000000,,2013-11-07 06:52:00,
2013-11-07 02:02:00,56.0,55.0,-100.00,WNW,299,3.0,16.0,97,0.36,,,0.63,0.000000,,2013-11-07 07:02:00,
2013-11-07 02:42:00,53.0,51.0,-100.00,WNW,298,3.0,11.0,94,0.11,,,0.74,0.000000,,2013-11-07 07:42:00,
2013-11-07 02:52:00,53.0,51.0,-100.00,WNW,298,3.0,11.0,94,0.11,,,0.74,0.000000,,2013-11-07 07:52:00,
2013-11-07 03:02:00,53.0,51.0,-100.00,WNW,298,3.0,11.0,94,0.11,,,0.74,0.000000,,2013-11-07 08:02:00,
2013-11-07 03:42:00,50.0,48.0,-100.00,NW,318,6.0,17.0,92,0.03,,,0.77,0.000000,,2013-11-07 08:42:00,
2013-11-07 03:53:00,50.0,48.0,-100.00,NW,318,6.0,17.0,92,0.03,,,0.77,0.000000,,2013-11-07 08:53:00,
2013-11-07 04:02:00,50.0,48.0,-100.00,NW,318,6.0,17.0,92,0.03,,,0.77,0.000000,,2013-11-07 09:02:00,
2013-11-07 04:43:00,46.0,45.0,-100.00,NNW,332,3.0,10.0,96,0.08,,,0.85,0.000000,,2013-11-07 09:43:00,
2013-11-07 04:53:00,46.0,45.0,-100.00,NNW,332,3.0,10.0,96,0.08,,,0.85,0.000000,,2013-11-07 09:53:00,
2013-11-07 05:03:00,46.0,45.0,-100.00,NNW,332,3.0,10.0,96,0.08,,,0.85,0.000000,,2013-11-07 10:03:00,
2013-11-07 05:42:00,45.0,44.0,-100.00,NW,306,3.0,7.0,96,0.09,,,0.94,0.000000,,2013-11-07 10:42:00,
2013-11-07 05:53:00,45.0,44.0,-100.00,NW,306,3.0,7.0,96,0.09,,,0.94,0.000000,,2013-11-07 10:53:00,
2013-11-07 06:02:00,45.0,44.0,-100.00,NW,306,3.0,7.0,96,0.09,,,0.94,0.000000,,2013-11-07 11:02:00,
2013-11-07 06:43:00,42.0,41.0,-100.00,NW,324,6.0,15.0,95,0.02,,,0.96,0.000000,,2013-11-07 11:43:00,
2013-11-07 06:52:00,42.0,41.0,-100.00,NW,324,6.0,15.0,95,0.02,,,0.96,0.000000,,2013-11-07 11:52:00,
2013-11-07 07:02:00,42.0,41.0,-100.00,NW,324,6.0,15.0,95,0.02,,,0.96,0.000000,,2013-11-07 12:02:00,
2013-11-07 07:42:00,41.0,39.0,-100.00,NNW,330,5.0,14.0,94,0.01,,,0.97,0.000000,,2013-11-07 12:42:00,
2013-11-07 07:52:00,41.0,39.0,-100.00,NNW,330,5.0,14.0,94,0.01,,,0.97,0.000000,,2013-11-07 12:52:00,
2013-11-07 08:01:00,41.0,39.0,-100.00,NNW,330,5.0,14.0,94,0.01,,,0.97,0.000000,,2013-11-07 13:01:00,
2013-11-07 08:42:00,40.0,38.0,-100.00,NW,320,4.0,11.0,93,0.00,,,0.97,11.000000,,2013-11-07 13:42:00,
2013-11-07 08:52:00,40.0,38.0,-100.00,NW,320,4.0,11.0,93,0.00,,,0.97,11.000000,,2013-11-07 13:52:00,
2013-11-07 09:02:00,40.0,38.0,-100.00,NW,320,4.0,11.0,93,0.00,,,0.97,11.000000,,2013-11-07 14:02:00,
2013-11-07 09:42:00,40.0,38.0,-100.00,NW,321,5.0,10.0,92,0.00,,,0.97,42.000000,,2013-11-07 14:42:00,
2013-11-07 09:52:00,40.0,38.0,-100.00,NW,321,5.0,10.0,92,0.00,,,0.97,42.000000,,2013-11-07 14:52:00,
2013-11-07 10:02:00,40.0,38.0,-100.00,NW,321,5.0,10.0,92,0.00,,,0.97,42.000000,,2013-11-07 15:02:00,
2013-11-07 10:43:00,41.0,37.0,-100.00,NW,304,6.0,16.0,87,0.00,,,0.97,101.000000,,2013-11-07 15:43:00,
2013-11-07 10:53:00,41.0,37.0,-100.00,NW,304,6.0,16.0,87,0.00,,,0.97,101.000000,,2013-11-07 15:53:00,
2013-11-07 11:04:00,41.0,37.0,-100.00,NW,304,6.0,16.0,87,0.00,,,0.97,101.000000,,2013-11-07 16:04:00,
2013-11-07 11:42:00,40.0,34.0,-100.00,NW,311,5.0,12.0,80,0.00,,,0.97,145.000000,,2013-11-07 16:42:00,
2013-11-07 11:52:00,40.0,34.0,-100.00,NW,311,5.0,12.0,80,0.00,,,0.97,145.000000,,2013-11-07 16:52:00,
2013-11-07 12:02:00,40.0,34.0,-100.00,NW,311,5.0,12.0,80,0.00,,,0.97,145.000000,,2013-11-07 17:02:00,
2013-11-07 12:43:00,45.0,38.0,-100.00,WNW,299,4.0,12.0,76,0.00,,,0.97,289.000000,,2013-11-07 17:43:00,
2013-11-07 13:02:00,45.0,38.0,-100.00,WNW,299,4.0,12.0,76,0.00,,,0.97,289.000000,,2013-11-07 18:02:00,
2013-11-07 13:42:00,39.0,36.0,-100.00,North,349,6.0,22.0,88,0.00,,,0.97,251.000000,,2013-11-07 18:42:00,
2013-11-07 13:52:00,39.0,36.0,-100.00,North,349,6.0,22.0,88,0.00,,,0.97,251.000000,,2013-11-07 18:52:00,
2013-11-07 14:01:00,39.0,36.0,-100.00,North,349,6.0,22.0,88,0.00,,,0.97,251.000000,,2013-11-07 19:01:00,
2013-11-07 14:42:00,40.0,34.0,-100.00,NNW,344,5.0,11.0,80,0.00,,,0.97,221.000000,,2013-11-07 19:42:00,
2013-11-07 14:52:00,40.0,34.0,-100.00,NNW,344,5.0,11.0,80,0.00,,,0.97,221.000000,,2013-11-07 19:52:00,
2013-11-07 15:01:00,40.0,34.0,-100.00,NNW,344,5.0,11.0,80,0.00,,,0.97,221.000000,,2013-11-07 20:01:00,
2013-11-07 15:42:00,40.0,31.0,-100.00,NNW,338,6.0,12.0,69,0.00,,,0.97,88.000000,,2013-11-07 20:42:00,
2013-11-07 15:52:00,40.0,31.0,-100.00,NNW,338,6.0,12.0,69,0.00,,,0.97,88.000000,,2013-11-07 20:52:00,
2013-11-07 16:02:00,40.0,31.0,-100.00,NNW,338,6.0,12.0,69,0.00,,,0.97,88.000000,,2013-11-07 21:02:00,
2013-11-07 16:43:00,37.0,33.0,-100.00,NW,305,6.0,13.0,86,0.01,,,0.98,35.000000,,2013-11-07 21:43:00,
2013-11-07 16:54:00,37.0,33.0,-100.00,NW,305,6.0,13.0,86,0.01,,,0.98,35.000000,,2013-11-07 21:54:00,
2013-11-07 17:03:00,37.0,33.0,-100.00,NW,305,6.0,13.0,86,0.01,,,0.98,35.000000,,2013-11-07 22:03:00,
2013-11-07 17:43:00,36.0,29.0,-100.00,WNW,300,5.0,14.0,77,0.00,,,0.98,13.000000,,2013-11-07 22:43:00,
2013-11-07 17:53:00,36.0,29.0,-100.00,WNW,300,5.0,14.0,77,0.00,,,0.98,13.000000,,2013-11-07 22:53:00,
2013-11-07 18:03:00,36.0,29.0,-100.00,WNW,300,5.0,14.0,77,0.00,,,0.98,13.000000,,2013-11-07 23:03:00,
2013-11-07 18:43:00,35.0,28.0,-100.00,WNW,294,4.0,9.0,75,0.00,,,0.98,0.000000,,2013-11-07 23:43:00,
2013-11-07 18:53:00,35.0,28.0,-100.00,WNW,294,4.0,9.0,75,0.00,,,0.98,0.000000,,2013-11-07 23:53:00,
2013-11-07 19:02:00,35.0,28.0,-100.00,WNW,294,4.0,9.0,75,0.00,,,0.98,0.000000,,2013-11-08 00:02:00,
2013-11-07 19:42:00,35.0,27.0,-100.00,WNW,301,5.0,11.0,73,0.00,,,0.97,0.000000,,2013-11-08 00:42:00,
2013-11-07 19:52:00,35.0,27.0,-100.00,WNW,301,5.0,11.0,73,0.00,,,0.97,0.000000,,2013-11-08 00:52:00,
2013-11-07 20:02:00,35.0,27.0,-100.00,WNW,301,5.0,11.0,73,0.00,,,0.97,0.000000,,2013-11-08 01:02:00,
2013-11-07 20:42:00,35.0,26.0,-100.00,WNW,288,5.0,10.0,69,0.00,,,0.94,0.000000,,2013-11-08 01:42:00,
2013-11-07 20:52:00,35.0,26.0,-100.00,WNW,288,5.0,10.0,69,0.00,,,0.94,0.000000,,2013-11-08 01:52:00,
2013-11-07 21:02:00,35.0,26.0,-100.00,WNW,288,5.0,10.0,69,0.00,,,0.94,0.000000,,2013-11-08 02:02:00,
2013-11-07 21:42:00,35.0,24.0,-100.00,WNW,295,5.0,14.0,63,0.00,,,0.90,0.000000,,2013-11-08 02:42:00,
2013-11-07 21:52:00,35.0,24.0,-100.00,WNW,295,5.0,14.0,63,0.00,,,0.90,0.000000,,2013-11-08 02:52:00,
2013-11-07 22:02:00,35.0,24.0,-100.00,WNW,295,5.0,14.0,63,0.00,,,0.90,0.000000,,2013-11-08 03:02:00,
2013-11-07 22:44:00,35.0,23.0,-100.00,NW,323,6.0,11.0,61,0.00,,,0.80,0.000000,,2013-11-08 03:44:00,
2013-11-07 22:55:00,35.0,23.0,-100.00,NW,323,6.0,11.0,61,0.00,,,0.80,0.000000,,2013-11-08 03:55:00,
2013-11-07 23:05:00,35.0,23.0,-100.00,NW,323,6.0,11.0,61,0.00,,,0.80,0.000000,,2013-11-08 04:05:00,
2013-11-07 23:44:00,35.0,27.0,-100.00,NNW,329,4.0,11.0,71,0.00,,,0.78,0.000000,,2013-11-08 04:44:00,
2013-11-07 23:54:00,35.0,27.0,-100.00,NNW,329,4.0,11.0,71,0.00,,,0.78,0.000000,,2013-11-08 04:54:00,